Photometre #140[NE_1.6] Ersa AOT

File : 20200927_140.hum

27/09/2020,06:04:57,TEMP=19.6,BA=5.16,STAT.h
27/09/2020,06:08:30,TEMP=19.6,BA=5.16,STAT.h
27/09/2020,06:12:39,TEMP=19.6,BA=5.20,STAT.h
27/09/2020,06:17:34,TEMP=19.6,BA=5.20,STAT.h
27/09/2020,06:23:50,TEMP=14.5,BA=5.20,STAT.A=Abs.,ExtBa=13.04
27/09/2020,06:31:12,TEMP=14.8,BA=5.16,STAT.A=Abs.,ExtBa=13.00
27/09/2020,06:40:30,TEMP=15.0,BA=5.16,STAT.B=Abs.,ExtBa=12.98
27/09/2020,06:44:57,TEMP=15.0,BA=5.16,STAT.A=Abs.,ExtBa=12.95
27/09/2020,06:49:57,TEMP=15.1,BA=5.16,STAT.A=Abs.,ExtBa=12.94
27/09/2020,06:55:15,TEMP=15.0,BA=5.12,STAT.h
27/09/2020,07:02:01,TEMP=14.6,BA=5.20,STAT.A=Abs.,ExtBa=12.97
27/09/2020,07:03:00,TEMP=14.6,BA=5.20,STAT.h
27/09/2020,07:09:05,TEMP=14.6,BA=5.20,STAT.h
27/09/2020,07:17:42,TEMP=14.6,BA=5.20,STAT.h
27/09/2020,07:28:13,TEMP=15.3,BA=5.20,STAT.A=Abs.,ExtBa=12.99
27/09/2020,07:40:30,TEMP=16.6,BA=5.16,STAT.A=Abs.,ExtBa=12.97
27/09/2020,07:55:42,TEMP=16.6,BA=5.16,STAT.A=Abs.,ExtBa=12.98
27/09/2020,08:13:51,TEMP=16.0,BA=5.16,STAT.F,ExtBa=12.99
27/09/2020,08:28:50,TEMP=15.6,BA=5.16,STAT.D=Abs.,ExtBa=12.99
27/09/2020,08:43:50,TEMP=15.8,BA=5.16,STAT.D=Abs.,ExtBa=12.99
27/09/2020,08:58:50,TEMP=16.0,BA=5.16,STAT.D=Abs.,ExtBa=12.99
27/09/2020,09:13:52,TEMP=16.3,BA=5.16,STAT.F,ExtBa=12.99
27/09/2020,09:28:50,TEMP=16.6,BA=5.16,STAT.D=Abs.,ExtBa=12.99
27/09/2020,09:43:50,TEMP=17.2,BA=5.16,STAT.D=Abs.,ExtBa=12.99
27/09/2020,09:58:50,TEMP=16.6,BA=5.16,STAT.D=Abs.,ExtBa=13.00
27/09/2020,10:13:31,TEMP=16.6,BA=5.16,STAT.h
27/09/2020,10:28:31,TEMP=16.6,BA=5.16,STAT.h
27/09/2020,10:43:31,TEMP=16.6,BA=5.16,STAT.h
27/09/2020,10:58:31,TEMP=16.6,BA=5.16,STAT.h
27/09/2020,11:13:31,TEMP=16.6,BA=5.16,STAT.h
27/09/2020,11:28:31,TEMP=16.6,BA=5.16,STAT.h
27/09/2020,11:43:31,TEMP=16.6,BA=5.16,STAT.h
27/09/2020,11:58:31,TEMP=16.6,BA=5.16,STAT.h
27/09/2020,12:13:31,TEMP=16.6,BA=5.16,STAT.h
27/09/2020,12:28:31,TEMP=16.6,BA=5.16,STAT.h
27/09/2020,12:43:31,TEMP=16.6,BA=5.16,STAT.h
27/09/2020,12:58:50,TEMP=14.8,BA=5.16,STAT.D=Abs.,ExtBa=13.03
27/09/2020,13:13:52,TEMP=15.3,BA=5.16,STAT.F,ExtBa=13.00
27/09/2020,13:28:50,TEMP=15.4,BA=5.16,STAT.D=Abs.,ExtBa=12.98
27/09/2020,13:43:31,TEMP=15.4,BA=5.16,STAT.h
27/09/2020,13:58:31,TEMP=15.4,BA=5.16,STAT.h
27/09/2020,14:13:51,TEMP=15.8,BA=5.16,STAT.F,ExtBa=13.00
27/09/2020,14:32:00,TEMP=16.1,BA=5.16,STAT.A=Abs.,ExtBa=12.99
27/09/2020,14:47:12,TEMP=16.4,BA=5.16,STAT.A=Abs.,ExtBa=12.98
27/09/2020,14:59:29,TEMP=16.6,BA=5.16,STAT.A=Abs.,ExtBa=12.98
27/09/2020,15:09:40,TEMP=17.9,BA=5.08,STAT.A=Abs.,ExtBa=12.96
27/09/2020,15:18:17,TEMP=18.4,BA=5.08,STAT.C=Abs.,ExtBa=12.94
27/09/2020,15:25:41,TEMP=18.8,BA=5.08,STAT.A=Abs.,ExtBa=12.93
27/09/2020,15:32:07,TEMP=19.2,BA=5.16,STAT.A=Abs.,ExtBa=12.95
27/09/2020,15:37:45,TEMP=19.2,BA=5.16,STAT.A=Abs.,ExtBa=12.96
27/09/2020,15:42:45,TEMP=19.2,BA=5.16,STAT.A=Abs.,ExtBa=12.94
27/09/2020,15:47:12,TEMP=18.8,BA=5.16,STAT.B=Abs.,ExtBa=12.94
27/09/2020,15:56:30,TEMP=18.6,BA=5.16,STAT.A=Abs.,ExtBa=12.97
27/09/2020,16:03:51,TEMP=18.0,BA=5.16,STAT.A=Abs.,ExtBa=12.96
27/09/2020,16:09:47,TEMP=18.1,BA=5.16,STAT.A=Abs.,ExtBa=12.94
27/09/2020,16:14:42,TEMP=18.4,BA=5.08,STAT.A=Abs.,ExtBa=12.94
27/09/2020,16:19:54,TEMP=18.5,BA=5.08,STAT.A=Abs.,ExtBa=12.95
27/09/2020,16:22:24,TEMP=18.7,BA=5.08,STAT.A=Abs.,ExtBa=12.91